SAS51D EIDW-ESSA

Flight info

Callsign SAS51D
Flight time 2h 13m
Altitude 37000
Route ROTEV3J ROTEV DCT GOTNA DCT CUTEL DCT REKNA DCT VAXIT DCT OSGAM DCT INVOL DCT DETSO N873 ARS T317 ELTOK
Aircraft A320/M-SDE3FGHIRWY/LB1

Departure

Time 2026-05-01 11:20
Airport Dublin Airport (EIDW)

Arrival

Time 2026-05-01 13:34
Airport Stockholm-Arlanda Airport (ESSA)
Time Latitude Longitude Altitude Speed Heading
2026-05-01 11:08 53.43108 -6.24959 211 ft 0 kts 185°
2026-05-01 11:11 53.43122 -6.24958 239 ft 2 kts 184°
2026-05-01 11:12 53.43138 -6.24955 214 ft 2 kts 183°
2026-05-01 11:12 53.43154 -6.24953 213 ft 2 kts 183°
2026-05-01 11:12 53.43171 -6.24951 211 ft 2 kts 179°
2026-05-01 11:12 53.43187 -6.24952 211 ft 2 kts 163°
2026-05-01 11:13 53.43196 -6.24965 211 ft 1 kts 85°
2026-05-01 11:13 53.43196 -6.24966 211 ft 0 kts 88°
2026-05-01 11:15 53.43196 -6.24959 211 ft 2 kts 91°
2026-05-01 11:15 53.43192 -6.24904 211 ft 7 kts 96°
2026-05-01 11:15 53.43185 -6.24795 217 ft 12 kts 95°
2026-05-01 11:15 53.43191 -6.24672 215 ft 12 kts 64°
2026-05-01 11:16 53.43190 -6.24523 211 ft 13 kts 95°
2026-05-01 11:16 53.43234 -6.24413 218 ft 10 kts
2026-05-01 11:16 53.43300 -6.24402 220 ft 12 kts
2026-05-01 11:16 53.43338 -6.24307 211 ft 13 kts 95°
2026-05-01 11:17 53.43330 -6.24176 211 ft 13 kts 96°
2026-05-01 11:17 53.43322 -6.24015 211 ft 15 kts 95°
2026-05-01 11:17 53.43328 -6.23879 212 ft 8 kts 54°
2026-05-01 11:17 53.43391 -6.23852 210 ft 12 kts
2026-05-01 11:18 53.43478 -6.23872 208 ft 11 kts 309°
2026-05-01 11:18 53.43491 -6.23971 216 ft 0 kts 276°
2026-05-01 11:18 53.43491 -6.23973 216 ft 1 kts 276°
2026-05-01 11:19 53.43507 -6.24264 212 ft 59 kts 275°
2026-05-01 11:19 53.43563 -6.25292 213 ft 115 kts 275°
2026-05-01 11:19 53.43649 -6.26603 240 ft 146 kts 276°
2026-05-01 11:20 53.43694 -6.27159 332 ft 147 kts 276°
2026-05-01 11:20 53.43803 -6.28581 708 ft 145 kts 275°
2026-05-01 11:20 53.43969 -6.30311 934 ft 159 kts 290°
2026-05-01 11:21 53.44682 -6.31796 1188 ft 166 kts 318°
2026-05-01 11:21 53.45556 -6.33108 1515 ft 175 kts 319°
2026-05-01 11:21 53.46554 -6.34420 1754 ft 188 kts 331°
2026-05-01 11:21 53.47820 -6.35121 1915 ft 198 kts 360°
2026-05-01 11:22 53.49237 -6.35066 2170 ft 212 kts
2026-05-01 11:22 53.50784 -6.34967 2429 ft 231 kts
2026-05-01 11:22 53.52413 -6.34869 2922 ft 236 kts
2026-05-01 11:22 53.54068 -6.34524 3343 ft 246 kts 12°
2026-05-01 11:23 53.55813 -6.34082 3643 ft 262 kts 11°
2026-05-01 11:23 53.57648 -6.33609 3916 ft 277 kts 12°
2026-05-01 11:23 53.59577 -6.33111 4392 ft 282 kts 11°
2026-05-01 11:23 53.61524 -6.32612 4970 ft 283 kts 11°
2026-05-01 11:24 53.63487 -6.32113 5447 ft 287 kts 11°
2026-05-01 11:24 53.65490 -6.31603 5964 ft 289 kts 11°
2026-05-01 11:24 53.69410 -6.30056 6937 ft 294 kts 18°
2026-05-01 11:25 53.71423 -6.29142 7392 ft 297 kts 18°
2026-05-01 11:25 53.75449 -6.27292 8245 ft 303 kts 22°
2026-05-01 11:25 53.77394 -6.25913 8692 ft 303 kts 28°
2026-05-01 11:26 53.79323 -6.24452 9119 ft 306 kts 28°
2026-05-01 11:26 53.83252 -6.21487 9921 ft 312 kts 28°
2026-05-01 11:26 53.85249 -6.19979 10205 ft 318 kts 28°
2026-05-01 11:27 53.87304 -6.18426 10326 ft 328 kts 28°
2026-05-01 11:27 53.89412 -6.16833 10446 ft 336 kts 28°
2026-05-01 11:27 53.91566 -6.15204 10565 ft 342 kts 28°
2026-05-01 11:27 53.93759 -6.13543 10690 ft 348 kts 27°
2026-05-01 11:28 53.95981 -6.11859 10821 ft 351 kts 27°
2026-05-01 11:28 53.98222 -6.10156 10987 ft 353 kts 27°
2026-05-01 11:28 54.00470 -6.08450 11168 ft 354 kts 27°
2026-05-01 11:29 54.04969 -6.04998 11520 ft 356 kts 28°
2026-05-01 11:29 54.07212 -6.03186 11684 ft 357 kts 29°
2026-05-01 11:29 54.11691 -5.99477 12033 ft 359 kts 30°
2026-05-01 11:30 54.13944 -5.97605 12232 ft 360 kts 30°
2026-05-01 11:30 54.16200 -5.95737 12390 ft 361 kts 29°
2026-05-01 11:30 54.18466 -5.93870 12577 ft 362 kts 29°
2026-05-01 11:30 54.20735 -5.92005 12746 ft 363 kts 29°
2026-05-01 11:31 54.23018 -5.90131 12891 ft 364 kts 29°
2026-05-01 11:31 54.25300 -5.88256 13040 ft 365 kts 29°
2026-05-01 11:31 54.27586 -5.86373 13184 ft 365 kts 29°
2026-05-01 11:31 54.29877 -5.84483 13334 ft 366 kts 29°
2026-05-01 11:32 54.32179 -5.82582 13467 ft 367 kts 29°
2026-05-01 11:32 54.34510 -5.80649 13604 ft 368 kts 29°
2026-05-01 11:32 54.36817 -5.78731 13740 ft 369 kts 29°
2026-05-01 11:32 54.39094 -5.76840 13871 ft 369 kts 29°
2026-05-01 11:33 54.41440 -5.74890 13995 ft 370 kts 29°
2026-05-01 11:33 54.43753 -5.72967 14110 ft 370 kts 29°
2026-05-01 11:33 54.46077 -5.71032 14227 ft 370 kts 29°
2026-05-01 11:33 54.48387 -5.69104 14346 ft 370 kts 29°
2026-05-01 11:34 54.50707 -5.67164 14466 ft 371 kts 29°
2026-05-01 11:34 54.53031 -5.65216 14576 ft 371 kts 29°
2026-05-01 11:34 54.55298 -5.63207 15048 ft 355 kts 35°
2026-05-01 11:34 54.57214 -5.60838 15777 ft 324 kts 46°
2026-05-01 11:35 54.58755 -5.58220 16344 ft 302 kts 55°
2026-05-01 11:35 54.59995 -5.55342 16750 ft 299 kts 64°
2026-05-01 11:35 54.60978 -5.52144 16876 ft 305 kts 73°
2026-05-01 11:35 54.61713 -5.48675 17006 ft 313 kts 77°
2026-05-01 11:36 54.62420 -5.45058 17142 ft 322 kts 77°
2026-05-01 11:36 54.63152 -5.41337 17288 ft 335 kts 76°
2026-05-01 11:36 54.63922 -5.37431 17509 ft 352 kts 76°
2026-05-01 11:36 54.64729 -5.33340 17716 ft 368 kts 76°
2026-05-01 11:37 54.65574 -5.29066 17915 ft 384 kts 76°
2026-05-01 11:37 54.66448 -5.24661 18346 ft 392 kts 76°
2026-05-01 11:37 54.67341 -5.20174 18886 ft 396 kts 76°
2026-05-01 11:37 54.68238 -5.15663 19458 ft 399 kts 76°
2026-05-01 11:38 54.69139 -5.11114 20038 ft 402 kts 76°
2026-05-01 11:38 54.70043 -5.06516 20620 ft 405 kts 76°
2026-05-01 11:38 54.70945 -5.01895 21164 ft 407 kts 76°
2026-05-01 11:38 54.71853 -4.97222 21696 ft 411 kts 76°
2026-05-01 11:39 54.72765 -4.92520 22203 ft 413 kts 76°
2026-05-01 11:39 54.73678 -4.87786 22701 ft 416 kts 76°
2026-05-01 11:39 54.74593 -4.83029 23193 ft 419 kts 77°
2026-05-01 11:39 54.75516 -4.78224 23678 ft 422 kts 77°
2026-05-01 11:40 54.76446 -4.73375 24081 ft 425 kts 76°
2026-05-01 11:40 54.77381 -4.68506 24472 ft 427 kts 76°
2026-05-01 11:40 54.78320 -4.63607 24858 ft 430 kts 76°
2026-05-01 11:40 54.79264 -4.58670 25236 ft 432 kts 76°
2026-05-01 11:41 54.80208 -4.53712 25600 ft 435 kts 76°
2026-05-01 11:41 54.81153 -4.48721 25968 ft 437 kts 76°
2026-05-01 11:41 54.82101 -4.43711 26325 ft 439 kts 76°
2026-05-01 11:41 54.83056 -4.38656 26694 ft 442 kts 76°
2026-05-01 11:42 54.84012 -4.33588 27049 ft 444 kts 76°
2026-05-01 11:42 54.84973 -4.28477 27395 ft 447 kts 76°
2026-05-01 11:42 54.85624 -4.24999 27637 ft 448 kts 76°
2026-05-01 11:42 54.86587 -4.19835 27991 ft 451 kts 76°
2026-05-01 11:43 54.87550 -4.14657 28325 ft 453 kts 76°
2026-05-01 11:43 54.88521 -4.09442 28654 ft 456 kts 76°
2026-05-01 11:43 54.89496 -4.04188 28991 ft 458 kts 76°
2026-05-01 11:44 54.91451 -3.93592 29614 ft 462 kts 76°
2026-05-01 11:44 54.92432 -3.88256 29924 ft 465 kts 76°
2026-05-01 11:44 54.93413 -3.82901 30312 ft 464 kts 76°
2026-05-01 11:44 54.94391 -3.77550 30721 ft 463 kts 76°
2026-05-01 11:45 54.95363 -3.72228 31120 ft 462 kts 76°
2026-05-01 11:45 54.96333 -3.66910 31508 ft 461 kts 76°
2026-05-01 11:45 54.97295 -3.61605 31902 ft 460 kts 76°
2026-05-01 11:45 54.98253 -3.56297 32310 ft 459 kts 76°
2026-05-01 11:46 54.99206 -3.51006 32726 ft 458 kts 76°
2026-05-01 11:46 55.00155 -3.45721 33138 ft 456 kts 76°
2026-05-01 11:46 55.01100 -3.40442 33562 ft 455 kts 76°
2026-05-01 11:46 55.02036 -3.35194 33965 ft 454 kts 76°
2026-05-01 11:47 55.02969 -3.29939 34343 ft 453 kts 76°
2026-05-01 11:47 55.03900 -3.24687 34683 ft 453 kts 76°
2026-05-01 11:47 55.04826 -3.19445 35003 ft 452 kts 76°
2026-05-01 11:47 55.05750 -3.14203 35306 ft 452 kts 76°
2026-05-01 11:48 55.06682 -3.08894 35601 ft 452 kts 76°
2026-05-01 11:48 55.07603 -3.03637 35885 ft 452 kts 76°
2026-05-01 11:48 55.08520 -2.98402 36177 ft 452 kts 76°
2026-05-01 11:48 55.09436 -2.93158 36457 ft 452 kts 76°
2026-05-01 11:49 55.10352 -2.87899 36715 ft 452 kts 76°
2026-05-01 11:49 55.11261 -2.82660 36973 ft 451 kts 76°
2026-05-01 11:49 55.12170 -2.77409 37125 ft 453 kts 76°
2026-05-01 11:49 55.13083 -2.72120 37138 ft 455 kts 76°
2026-05-01 11:50 55.14902 -2.61514 37138 ft 456 kts 76°
2026-05-01 11:50 55.16710 -2.50886 37136 ft 456 kts 76°
2026-05-01 11:51 55.18513 -2.40261 37136 ft 456 kts 76°
2026-05-01 11:51 55.20304 -2.29629 37136 ft 456 kts 76°
2026-05-01 11:52 55.22091 -2.18967 37131 ft 456 kts 76°
2026-05-01 11:52 55.23870 -2.08302 37131 ft 456 kts 76°
2026-05-01 11:53 55.25642 -1.97608 37137 ft 457 kts 77°
2026-05-01 11:53 55.27400 -1.86905 37136 ft 457 kts 77°
2026-05-01 11:54 55.29147 -1.76194 37141 ft 457 kts 77°
2026-05-01 11:54 55.30891 -1.65453 37145 ft 458 kts 77°
2026-05-01 11:55 55.32641 -1.54638 37152 ft 458 kts 77°
2026-05-01 11:55 55.34369 -1.43861 37155 ft 458 kts 77°
2026-05-01 11:56 55.36087 -1.33089 37155 ft 458 kts 77°
2026-05-01 11:56 55.37795 -1.22284 37159 ft 459 kts 77°
2026-05-01 11:57 55.39491 -1.11470 37159 ft 459 kts 77°
2026-05-01 11:57 55.41179 -1.00645 37164 ft 459 kts 77°
2026-05-01 11:58 55.42872 -0.89797 37165 ft 459 kts 77°
2026-05-01 11:59 55.45382 -0.73493 37170 ft 460 kts 78°
2026-05-01 11:59 55.47041 -0.62630 37171 ft 460 kts 78°
2026-05-01 12:00 55.49529 -0.46254 37175 ft 461 kts 78°
2026-05-01 12:01 55.51981 -0.29850 37169 ft 461 kts 78°
2026-05-01 12:01 55.53612 -0.18896 37177 ft 462 kts 78°
2026-05-01 12:02 55.55227 -0.07940 37186 ft 462 kts 78°
2026-05-01 12:02 55.56839 0.03056 37183 ft 462 kts 78°
2026-05-01 12:03 55.58444 0.14058 37184 ft 462 kts 78°
2026-05-01 12:03 55.60041 0.25054 37186 ft 462 kts 78°
2026-05-01 12:04 55.61626 0.36077 37188 ft 462 kts 79°
2026-05-01 12:04 55.63189 0.47101 37193 ft 462 kts 79°
2026-05-01 12:05 55.64752 0.58207 37197 ft 463 kts 79°
2026-05-01 12:05 55.67091 0.74791 37206 ft 463 kts 79°
2026-05-01 12:06 55.68631 0.85865 37207 ft 462 kts 79°
2026-05-01 12:06 55.70153 0.96891 37209 ft 463 kts 79°
2026-05-01 12:07 55.71675 1.08043 37213 ft 463 kts 79°
2026-05-01 12:07 55.73190 1.19152 37212 ft 463 kts 79°
2026-05-01 12:08 55.74694 1.30256 37216 ft 463 kts 79°
2026-05-01 12:08 55.76179 1.41367 37219 ft 463 kts 79°
2026-05-01 12:09 55.77653 1.52482 37220 ft 462 kts 79°
2026-05-01 12:09 55.79122 1.63595 37223 ft 462 kts 79°
2026-05-01 12:10 55.81312 1.80292 37227 ft 462 kts 79°
2026-05-01 12:11 55.83468 1.97017 37238 ft 463 kts 80°
2026-05-01 12:11 55.84898 2.08175 37240 ft 463 kts 80°
2026-05-01 12:12 55.86323 2.19335 37242 ft 463 kts 80°
2026-05-01 12:12 55.87726 2.30503 37247 ft 462 kts 80°
2026-05-01 12:13 55.89631 2.41454 37247 ft 466 kts 66°
2026-05-01 12:13 55.92393 2.51942 37245 ft 467 kts 67°
2026-05-01 12:14 55.95144 2.62433 37253 ft 467 kts 67°
2026-05-01 12:14 55.97438 2.71246 37259 ft 467 kts 67°
2026-05-01 12:15 56.00598 2.83492 37266 ft 467 kts 67°
2026-05-01 12:15 56.02866 2.92326 37269 ft 467 kts 67°
2026-05-01 12:16 56.05569 3.02885 37270 ft 467 kts 67°
2026-05-01 12:16 56.08274 3.13477 37269 ft 467 kts 67°
2026-05-01 12:17 56.10960 3.24057 37271 ft 467 kts 67°
2026-05-01 12:17 56.13635 3.34657 37276 ft 467 kts 67°
2026-05-01 12:18 56.16304 3.45277 37280 ft 467 kts 67°
2026-05-01 12:18 56.18973 3.55939 37283 ft 468 kts 67°
2026-05-01 12:19 56.21624 3.66592 37290 ft 468 kts 68°
2026-05-01 12:19 56.24273 3.77272 37293 ft 468 kts 67°
2026-05-01 12:20 56.26908 3.87974 37290 ft 468 kts 68°
2026-05-01 12:20 56.29537 3.98693 37290 ft 467 kts 68°
2026-05-01 12:21 56.32149 4.09411 37289 ft 467 kts 68°
2026-05-01 12:21 56.34756 4.20140 37287 ft 467 kts 68°
2026-05-01 12:22 56.37356 4.30878 37290 ft 467 kts 68°
2026-05-01 12:22 56.39961 4.41712 37290 ft 467 kts 68°
2026-05-01 12:23 56.42536 4.52484 37289 ft 467 kts 68°
2026-05-01 12:23 56.45107 4.63259 37293 ft 467 kts 68°
2026-05-01 12:24 56.47668 4.74068 37297 ft 468 kts 68°
2026-05-01 12:24 56.50222 4.84889 37311 ft 467 kts 68°
2026-05-01 12:25 56.54015 5.01150 37315 ft 467 kts 69°
2026-05-01 12:26 56.56278 5.12180 37314 ft 466 kts 72°
2026-05-01 12:26 56.59407 5.28872 37315 ft 466 kts 72°
2026-05-01 12:27 56.62595 5.45555 37321 ft 466 kts 72°
2026-05-01 12:28 56.65810 5.62216 37321 ft 465 kts 72°
2026-05-01 12:29 56.68970 5.78910 37317 ft 465 kts 72°
2026-05-01 12:29 56.72112 5.95636 37319 ft 465 kts 72°
2026-05-01 12:30 56.75231 6.12380 37322 ft 465 kts 72°
2026-05-01 12:31 56.77288 6.23554 37326 ft 465 kts 72°
2026-05-01 12:31 56.79343 6.34753 37332 ft 466 kts 72°
2026-05-01 12:32 56.81413 6.46019 37333 ft 465 kts 72°
2026-05-01 12:32 56.84463 6.62837 37333 ft 465 kts 72°
2026-05-01 12:33 56.86482 6.74070 37331 ft 465 kts 72°
2026-05-01 12:33 56.88492 6.85297 37337 ft 465 kts 72°
2026-05-01 12:34 56.90494 6.96548 37341 ft 465 kts 72°
2026-05-01 12:34 56.92485 7.07795 37342 ft 464 kts 73°
2026-05-01 12:35 56.94456 7.19052 37349 ft 465 kts 73°
2026-05-01 12:35 56.96420 7.30335 37352 ft 464 kts 73°
2026-05-01 12:36 56.98375 7.41605 37354 ft 464 kts 73°
2026-05-01 12:36 57.00326 7.52906 37356 ft 464 kts 73°
2026-05-01 12:37 57.02262 7.64210 37356 ft 464 kts 73°
2026-05-01 12:37 57.04184 7.75515 37361 ft 464 kts 73°
2026-05-01 12:38 57.06098 7.86842 37358 ft 464 kts 73°
2026-05-01 12:38 57.08000 7.98177 37361 ft 464 kts 73°
2026-05-01 12:39 57.09895 8.09505 37362 ft 464 kts 73°
2026-05-01 12:39 57.11780 8.20847 37364 ft 464 kts 73°
2026-05-01 12:40 57.13653 8.32209 37368 ft 463 kts 73°
2026-05-01 12:40 57.15524 8.43635 37366 ft 463 kts 73°
2026-05-01 12:41 57.17361 8.54948 37368 ft 463 kts 73°
2026-05-01 12:41 57.19216 8.66408 37370 ft 464 kts 73°
2026-05-01 12:42 57.21044 8.77804 37369 ft 463 kts 73°
2026-05-01 12:42 57.22867 8.89203 37366 ft 463 kts 73°
2026-05-01 12:43 57.24675 9.00609 37367 ft 463 kts 73°
2026-05-01 12:43 57.26465 9.12018 37366 ft 463 kts 73°
2026-05-01 12:44 57.28441 9.23329 37363 ft 462 kts 70°
2026-05-01 12:45 57.32958 9.45585 37362 ft 462 kts 69°
2026-05-01 12:45 57.35120 9.56774 37362 ft 462 kts 70°
2026-05-01 12:46 57.37242 9.68005 37358 ft 462 kts 70°
2026-05-01 12:46 57.39367 9.79249 37360 ft 462 kts 70°
2026-05-01 12:47 57.41496 9.90502 37356 ft 462 kts 70°
2026-05-01 12:47 57.43619 10.01769 37359 ft 462 kts 70°
2026-05-01 12:48 57.45385 10.11227 37360 ft 462 kts 70°
2026-05-01 12:48 57.47479 10.22493 37362 ft 462 kts 70°
2026-05-01 12:49 57.49561 10.33797 37362 ft 462 kts 70°
2026-05-01 12:49 57.51633 10.45099 37362 ft 462 kts 70°
2026-05-01 12:50 57.53703 10.56429 37359 ft 462 kts 70°
2026-05-01 12:50 57.55764 10.67767 37353 ft 462 kts 70°
2026-05-01 12:51 57.57806 10.79092 37356 ft 462 kts 71°
2026-05-01 12:52 57.60858 10.96150 37356 ft 462 kts 71°
2026-05-01 12:52 57.63883 11.13231 37352 ft 462 kts 71°
2026-05-01 12:53 57.66218 11.24368 37348 ft 460 kts 59°
2026-05-01 12:53 57.67869 11.29472 37343 ft 460 kts 56°
2026-05-01 12:54 57.71233 11.39642 37354 ft 460 kts 57°
2026-05-01 12:54 57.76250 11.54965 37365 ft 461 kts 57°
2026-05-01 12:55 57.81258 11.70334 37377 ft 460 kts 57°
2026-05-01 12:56 57.84581 11.80595 37375 ft 460 kts 57°
2026-05-01 12:56 57.87923 11.90960 37374 ft 460 kts 57°
2026-05-01 12:57 57.91210 12.01197 37366 ft 460 kts 57°
2026-05-01 12:57 57.96171 12.16754 37359 ft 460 kts 57°
2026-05-01 12:58 57.99462 12.27108 37351 ft 460 kts 57°
2026-05-01 12:59 58.04368 12.42653 37333 ft 460 kts 57°
2026-05-01 12:59 58.09262 12.58243 37320 ft 460 kts 57°
2026-05-01 13:00 58.14135 12.73879 37319 ft 460 kts 57°
2026-05-01 13:01 58.19005 12.89576 37301 ft 461 kts 57°
2026-05-01 13:02 58.23852 13.05339 37316 ft 461 kts 57°
2026-05-01 13:07 58.58839 14.22451 37259 ft 462 kts 58°
2026-05-01 13:08 58.62564 14.32358 37252 ft 457 kts 46°
2026-05-01 13:08 58.66646 14.41731 37253 ft 458 kts 47°
2026-05-01 13:09 58.70713 14.51163 37262 ft 458 kts 47°
2026-05-01 13:09 58.74767 14.60638 37260 ft 458 kts 47°
2026-05-01 13:10 58.78812 14.70104 37257 ft 458 kts 47°
2026-05-01 13:10 58.82857 14.79576 37247 ft 458 kts 47°
2026-05-01 13:11 58.86903 14.89099 37248 ft 458 kts 47°
2026-05-01 13:11 58.90929 14.98627 37243 ft 458 kts 47°
2026-05-01 13:12 58.94953 15.08199 37237 ft 458 kts 47°
2026-05-01 13:12 58.98965 15.17785 37064 ft 457 kts 47°
2026-05-01 13:12 59.00965 15.22572 36798 ft 457 kts 47°
2026-05-01 13:13 59.02962 15.27364 36533 ft 452 kts 47°
2026-05-01 13:13 59.04919 15.32073 36102 ft 448 kts 47°
2026-05-01 13:13 59.06889 15.36817 35336 ft 451 kts 47°
2026-05-01 13:13 59.08844 15.41540 34974 ft 445 kts 47°
2026-05-01 13:14 59.10820 15.46313 33955 ft 454 kts 47°
2026-05-01 13:14 59.12837 15.51174 32594 ft 467 kts 47°
2026-05-01 13:14 59.14869 15.56081 31518 ft 474 kts 47°
2026-05-01 13:14 59.16935 15.61101 30566 ft 476 kts 48°
2026-05-01 13:15 59.19018 15.66192 29882 ft 471 kts 48°
2026-05-01 13:15 59.21011 15.71083 29235 ft 464 kts 48°
2026-05-01 13:15 59.23031 15.76056 28587 ft 458 kts 48°
2026-05-01 13:15 59.25000 15.80904 27939 ft 453 kts 47°
2026-05-01 13:16 59.26948 15.85699 27312 ft 448 kts 47°
2026-05-01 13:16 59.28878 15.90447 26683 ft 444 kts 47°
2026-05-01 13:16 59.30752 15.95066 26077 ft 441 kts 47°
2026-05-01 13:17 59.36399 16.09074 24252 ft 433 kts 47°
2026-05-01 13:17 59.38255 16.13714 23646 ft 431 kts 47°
2026-05-01 13:18 59.41934 16.22915 22479 ft 424 kts 47°
2026-05-01 13:18 59.43750 16.27457 21954 ft 421 kts 47°
2026-05-01 13:18 59.45532 16.31924 21788 ft 409 kts 47°
2026-05-01 13:18 59.47255 16.36261 21658 ft 396 kts 47°
2026-05-01 13:19 59.48921 16.40472 21530 ft 383 kts 47°
2026-05-01 13:19 59.50532 16.44554 21291 ft 374 kts 47°
2026-05-01 13:19 59.53667 16.52496 20005 ft 364 kts 46°
2026-05-01 13:20 59.55214 16.56418 19269 ft 361 kts 46°
2026-05-01 13:20 59.56746 16.60304 18553 ft 358 kts 46°
2026-05-01 13:20 59.58316 16.64066 17775 ft 350 kts 39°
2026-05-01 13:21 59.62010 16.69803 16545 ft 328 kts 28°
2026-05-01 13:21 59.63254 16.71561 16231 ft 321 kts 28°
2026-05-01 13:21 59.65038 16.74105 15774 ft 312 kts 28°
2026-05-01 13:21 59.66772 16.76582 15327 ft 304 kts 28°
2026-05-01 13:22 59.68477 16.79014 14870 ft 304 kts 29°
2026-05-01 13:22 59.70207 16.81471 14420 ft 307 kts 29°
2026-05-01 13:22 59.71954 16.83948 13956 ft 311 kts 29°
2026-05-01 13:22 59.73718 16.86458 13448 ft 313 kts 30°
2026-05-01 13:23 59.75491 16.88995 12973 ft 315 kts 30°
2026-05-01 13:23 59.77272 16.91543 12493 ft 316 kts 30°
2026-05-01 13:23 59.79043 16.94082 12131 ft 313 kts 30°
2026-05-01 13:23 59.80700 16.96938 11746 ft 317 kts 44°
2026-05-01 13:24 59.81965 17.00533 11414 ft 320 kts 59°
2026-05-01 13:24 59.82742 17.04692 11045 ft 323 kts 75°
2026-05-01 13:24 59.83037 17.09115 10683 ft 323 kts 82°
2026-05-01 13:25 59.83525 17.17936 9975 ft 319 kts 81°
2026-05-01 13:25 59.83701 17.22308 9586 ft 318 kts 90°
2026-05-01 13:25 59.83394 17.26642 9227 ft 317 kts 105°
2026-05-01 13:25 59.82900 17.29361 8971 ft 316 kts 115°
2026-05-01 13:26 59.82874 17.29473 8958 ft 316 kts 116°
2026-05-01 13:26 59.81914 17.32612 8627 ft 314 kts 124°
2026-05-01 13:26 59.80782 17.36319 8259 ft 313 kts 120°
2026-05-01 13:26 59.79738 17.40100 7907 ft 312 kts 119°
2026-05-01 13:27 59.78720 17.43897 7550 ft 310 kts 118°
2026-05-01 13:27 59.77706 17.47677 7197 ft 309 kts 118°
2026-05-01 13:27 59.75696 17.55181 6488 ft 307 kts 112°
2026-05-01 13:28 59.75179 17.63376 5772 ft 298 kts 77°
2026-05-01 13:28 59.75668 17.67316 5333 ft 292 kts 72°
2026-05-01 13:29 59.76696 17.75090 4078 ft 288 kts 74°
2026-05-01 13:29 59.77665 17.82556 3529 ft 265 kts 74°
2026-05-01 13:30 59.77733 17.94828 3136 ft 209 kts 126°
2026-05-01 13:31 59.75608 17.98412 2535 ft 198 kts 164°
2026-05-01 13:31 59.71892 17.98512 1508 ft 156 kts 196°
2026-05-01 13:32 59.70045 17.97790 1175 ft 128 kts 196°
2026-05-01 13:33 59.67395 17.96832 646 ft 128 kts 193°
2026-05-01 13:33 59.65655 17.96183 322 ft 125 kts 196°
2026-05-01 13:34 59.64050 17.95586 113 ft 75 kts 190°
2026-05-01 13:34 59.63394 17.95279 121 ft 28 kts 215°
2026-05-01 13:35 59.63268 17.94915 121 ft 16 kts 336°
2026-05-01 13:35 59.63350 17.94926 121 ft 10 kts
2026-05-01 13:35 59.63545 17.94997 116 ft 16 kts 11°
2026-05-01 13:36 59.63677 17.95040 112 ft 23 kts 13°
2026-05-01 13:36 59.63797 17.95089 111 ft 16 kts 11°
2026-05-01 13:36 59.64021 17.95170 109 ft 11 kts 11°
2026-05-01 13:37 59.64086 17.95194 108 ft 10 kts 11°
2026-05-01 13:37 59.64166 17.95222 107 ft 13 kts
2026-05-01 13:37 59.64265 17.95258 106 ft 9 kts 11°